Year,Month,Day,Hour,Minute,Value (Times are PST for temperature in C)
2011,11,17,00,00,6.80
2011,11,17,00,01,6.80
2011,11,17,00,02,6.80
2011,11,17,00,03,6.80
2011,11,17,00,04,6.80
2011,11,17,00,05,6.80
2011,11,17,00,06,6.80
2011,11,17,00,07,6.80
2011,11,17,00,08,6.70
2011,11,17,00,09,6.70
2011,11,17,00,10,6.70
2011,11,17,00,11,6.60
2011,11,17,00,12,6.60
2011,11,17,00,13,6.60
2011,11,17,00,14,6.60
2011,11,17,00,15,6.60
2011,11,17,00,16,6.60
2011,11,17,00,17,6.70
2011,11,17,00,18,6.70
2011,11,17,00,19,6.70
2011,11,17,00,20,6.70
2011,11,17,00,21,6.70
2011,11,17,00,22,6.70
2011,11,17,00,23,6.70
2011,11,17,00,24,6.70
2011,11,17,00,25,6.70
2011,11,17,00,26,6.70
2011,11,17,00,27,6.60
2011,11,17,00,28,6.60
2011,11,17,00,29,6.60
2011,11,17,00,30,6.60
2011,11,17,00,31,6.60
2011,11,17,00,32,6.60
2011,11,17,00,33,6.50
2011,11,17,00,34,6.60
2011,11,17,00,35,6.60
2011,11,17,00,36,6.60
2011,11,17,00,37,6.60
2011,11,17,00,38,6.60
2011,11,17,00,39,6.50
2011,11,17,00,40,6.50
2011,11,17,00,41,6.50
2011,11,17,00,42,6.40
2011,11,17,00,43,6.40
2011,11,17,00,44,6.40
2011,11,17,00,45,6.30
2011,11,17,00,46,6.30
2011,11,17,00,47,6.20
2011,11,17,00,48,6.20
2011,11,17,00,49,6.10
2011,11,17,00,50,6.10
2011,11,17,00,51,6.10
2011,11,17,00,52,6.10
2011,11,17,00,53,6.20
2011,11,17,00,54,6.10
2011,11,17,00,55,6.10
2011,11,17,00,56,6.10
2011,11,17,00,57,6.10
2011,11,17,00,58,6.10
2011,11,17,00,59,6.10
2011,11,17,01,00,6.20
2011,11,17,01,01,6.20
2011,11,17,01,02,6.10
2011,11,17,01,03,6.00
2011,11,17,01,04,5.90
2011,11,17,01,05,5.90
2011,11,17,01,06,5.80
2011,11,17,01,07,5.70
2011,11,17,01,08,5.60
2011,11,17,01,09,5.50
2011,11,17,01,10,5.40
2011,11,17,01,11,5.40
2011,11,17,01,12,5.30
2011,11,17,01,13,5.30
2011,11,17,01,14,5.20
2011,11,17,01,15,5.20
2011,11,17,01,16,5.20
2011,11,17,01,17,5.20
2011,11,17,01,18,5.20
2011,11,17,01,19,5.10
2011,11,17,01,20,5.10
2011,11,17,01,21,5.10
2011,11,17,01,22,5.10
2011,11,17,01,23,5.10
2011,11,17,01,24,5.20
2011,11,17,01,25,5.20
2011,11,17,01,26,5.20
2011,11,17,01,27,5.20
2011,11,17,01,28,5.30
2011,11,17,01,29,5.30
2011,11,17,01,30,5.30
2011,11,17,01,31,5.20
2011,11,17,01,32,5.20
2011,11,17,01,33,5.00
2011,11,17,01,34,4.80
2011,11,17,01,35,4.60
2011,11,17,01,36,4.20
2011,11,17,01,37,3.90
2011,11,17,01,38,3.70
2011,11,17,01,39,3.50
2011,11,17,01,40,3.30
2011,11,17,01,41,3.20
2011,11,17,01,42,3.20
2011,11,17,01,43,3.20
2011,11,17,01,44,3.20
2011,11,17,01,45,3.20
2011,11,17,01,46,3.20
2011,11,17,01,47,3.20
2011,11,17,01,48,3.20
2011,11,17,01,49,3.20
2011,11,17,01,50,3.20
2011,11,17,01,51,3.20
2011,11,17,01,52,3.10
2011,11,17,01,53,3.10
2011,11,17,01,54,3.10
2011,11,17,01,55,3.10
2011,11,17,01,56,3.00
2011,11,17,01,57,3.00
2011,11,17,01,58,3.10
2011,11,17,01,59,3.10
2011,11,17,02,00,3.10
2011,11,17,02,01,3.10
2011,11,17,02,02,3.10
2011,11,17,02,03,3.00
2011,11,17,02,04,3.00
2011,11,17,02,05,3.00
2011,11,17,02,06,3.10
2011,11,17,02,07,3.10
2011,11,17,02,08,3.10
2011,11,17,02,09,3.10
2011,11,17,02,10,3.20
2011,11,17,02,11,3.20
2011,11,17,02,12,3.30
2011,11,17,02,13,3.40
2011,11,17,02,14,3.40
2011,11,17,02,15,3.40
2011,11,17,02,16,3.40
2011,11,17,02,17,3.30
2011,11,17,02,18,3.40
2011,11,17,02,19,3.40
2011,11,17,02,20,3.40
2011,11,17,02,21,3.40
2011,11,17,02,22,3.40
2011,11,17,02,23,3.50
2011,11,17,02,24,3.50
2011,11,17,02,25,3.50
2011,11,17,02,26,3.60
2011,11,17,02,27,3.60
2011,11,17,02,28,3.70
2011,11,17,02,29,3.80
2011,11,17,02,30,3.90
2011,11,17,02,31,4.00
2011,11,17,02,32,4.10
2011,11,17,02,33,4.20
2011,11,17,02,34,4.30
2011,11,17,02,35,4.40
2011,11,17,02,36,4.50
2011,11,17,02,37,4.50
2011,11,17,02,38,4.40
2011,11,17,02,39,4.30
2011,11,17,02,40,4.20
2011,11,17,02,41,4.10
2011,11,17,02,42,4.00
2011,11,17,02,43,3.90
2011,11,17,02,44,3.80
2011,11,17,02,45,3.80
2011,11,17,02,46,3.80
2011,11,17,02,47,3.60
2011,11,17,02,48,3.50
2011,11,17,02,49,3.40
2011,11,17,02,50,3.20
2011,11,17,02,51,3.10
2011,11,17,02,52,3.00
2011,11,17,02,53,3.00
2011,11,17,02,54,2.90
2011,11,17,02,55,2.80
2011,11,17,02,56,2.80
2011,11,17,02,57,2.80
2011,11,17,02,58,2.80
2011,11,17,02,59,2.80
2011,11,17,03,00,2.80
2011,11,17,03,01,2.80
2011,11,17,03,02,2.80
2011,11,17,03,03,2.80
2011,11,17,03,04,2.80
2011,11,17,03,05,2.80
2011,11,17,03,06,2.80
2011,11,17,03,07,2.80
2011,11,17,03,08,2.80
2011,11,17,03,09,2.80
2011,11,17,03,10,2.80
2011,11,17,03,11,2.80
2011,11,17,03,12,2.80
2011,11,17,03,13,2.90
2011,11,17,03,14,2.90
2011,11,17,03,15,3.00
2011,11,17,03,16,3.00
2011,11,17,03,17,3.10
2011,11,17,03,18,3.20
2011,11,17,03,19,3.30
2011,11,17,03,20,3.40
2011,11,17,03,21,3.40
2011,11,17,03,22,3.50
2011,11,17,03,23,3.60
2011,11,17,03,24,3.60
2011,11,17,03,25,3.60
2011,11,17,03,26,3.70
2011,11,17,03,27,3.80
2011,11,17,03,28,3.90
2011,11,17,03,29,4.00
2011,11,17,03,30,4.10
2011,11,17,03,31,4.20
2011,11,17,03,32,4.30
2011,11,17,03,33,4.30
2011,11,17,03,34,4.30
2011,11,17,03,35,4.30
2011,11,17,03,36,4.20
2011,11,17,03,37,4.10
2011,11,17,03,38,4.00
2011,11,17,03,39,3.80
2011,11,17,03,40,3.70
2011,11,17,03,41,3.60
2011,11,17,03,42,3.50
2011,11,17,03,43,3.40
2011,11,17,03,44,3.30
2011,11,17,03,45,3.20
2011,11,17,03,46,3.10
2011,11,17,03,47,3.00
2011,11,17,03,48,3.00
2011,11,17,03,49,2.90
2011,11,17,03,50,2.80
2011,11,17,03,51,2.70
2011,11,17,03,52,2.70
2011,11,17,03,53,2.50
2011,11,17,03,54,2.40
2011,11,17,03,55,2.30
2011,11,17,03,56,2.30
2011,11,17,03,57,2.30
2011,11,17,03,58,2.30
2011,11,17,03,59,2.40
2011,11,17,04,00,2.40
2011,11,17,04,01,2.40
2011,11,17,04,02,2.50
2011,11,17,04,03,2.50
2011,11,17,04,04,2.60
2011,11,17,04,05,2.60
2011,11,17,04,06,2.60
2011,11,17,04,07,2.60
2011,11,17,04,08,2.60
2011,11,17,04,09,2.60
2011,11,17,04,10,2.50
2011,11,17,04,11,2.50
2011,11,17,04,12,2.60
2011,11,17,04,13,2.60
2011,11,17,04,14,2.60
2011,11,17,04,15,2.60
2011,11,17,04,16,2.70
2011,11,17,04,17,2.70
2011,11,17,04,18,2.80
2011,11,17,04,19,2.80
2011,11,17,04,20,2.80
2011,11,17,04,21,2.80
2011,11,17,04,22,2.80
2011,11,17,04,23,2.90
2011,11,17,04,24,3.10
2011,11,17,04,25,3.10
2011,11,17,04,26,3.20
2011,11,17,04,27,3.20
2011,11,17,04,28,3.30
2011,11,17,04,29,3.40
2011,11,17,04,30,3.50
2011,11,17,04,31,3.60
2011,11,17,04,32,3.60
2011,11,17,04,33,3.60
2011,11,17,04,34,3.50
2011,11,17,04,35,3.40
2011,11,17,04,36,3.30
2011,11,17,04,37,3.30
2011,11,17,04,38,3.40
2011,11,17,04,39,3.50
2011,11,17,04,40,3.60
2011,11,17,04,41,3.60
2011,11,17,04,42,3.60
2011,11,17,04,43,3.60
2011,11,17,04,44,3.60
2011,11,17,04,45,3.60
2011,11,17,04,46,3.70
2011,11,17,04,47,3.50
2011,11,17,04,48,3.40
2011,11,17,04,49,3.30
2011,11,17,04,50,3.10
2011,11,17,04,51,3.00
2011,11,17,04,52,2.90
2011,11,17,04,53,2.90
2011,11,17,04,54,2.90
2011,11,17,04,55,2.80
2011,11,17,04,56,2.70
2011,11,17,04,57,2.70
2011,11,17,04,58,2.60
2011,11,17,04,59,2.60
2011,11,17,05,00,2.50
2011,11,17,05,01,2.50
2011,11,17,05,02,2.40
2011,11,17,05,03,2.40
2011,11,17,05,04,2.40
2011,11,17,05,05,2.30
2011,11,17,05,06,2.30
2011,11,17,05,07,2.40
2011,11,17,05,08,2.50
2011,11,17,05,09,2.50
2011,11,17,05,10,2.60
2011,11,17,05,11,2.60
2011,11,17,05,12,2.70
2011,11,17,05,13,2.80
2011,11,17,05,14,2.80
2011,11,17,05,15,2.80
2011,11,17,05,16,2.80
2011,11,17,05,17,2.80
2011,11,17,05,18,2.90
2011,11,17,05,19,2.90
2011,11,17,05,20,2.90
2011,11,17,05,21,3.00
2011,11,17,05,22,3.10
2011,11,17,05,23,3.20
2011,11,17,05,24,3.30
2011,11,17,05,25,3.30
2011,11,17,05,26,3.30
2011,11,17,05,27,3.30
2011,11,17,05,28,3.30
2011,11,17,05,29,3.30
2011,11,17,05,30,3.30
2011,11,17,05,31,3.20
2011,11,17,05,32,3.20
2011,11,17,05,33,3.00
2011,11,17,05,34,2.80
2011,11,17,05,35,2.60
2011,11,17,05,36,2.50
2011,11,17,05,37,2.40
2011,11,17,05,38,2.30
2011,11,17,05,39,2.20
2011,11,17,05,40,2.20
2011,11,17,05,41,2.10
2011,11,17,05,42,2.00
2011,11,17,05,43,1.90
2011,11,17,05,44,1.90
2011,11,17,05,45,1.90
2011,11,17,05,46,1.80
2011,11,17,05,47,1.80
2011,11,17,05,48,1.80
2011,11,17,05,49,1.80
2011,11,17,05,50,1.80
2011,11,17,05,51,1.80
2011,11,17,05,52,1.90
2011,11,17,05,53,1.90
2011,11,17,05,54,1.90
2011,11,17,05,55,2.00
2011,11,17,05,56,2.10
2011,11,17,05,57,2.10
2011,11,17,05,58,2.20
2011,11,17,05,59,2.30
2011,11,17,06,00,2.30
2011,11,17,06,01,2.30
2011,11,17,06,02,2.30
2011,11,17,06,03,2.30
2011,11,17,06,04,2.30
2011,11,17,06,05,2.20
2011,11,17,06,06,2.20
2011,11,17,06,07,2.20
2011,11,17,06,08,2.10
2011,11,17,06,09,2.10
2011,11,17,06,10,2.10
2011,11,17,06,11,2.20
2011,11,17,06,12,2.20
2011,11,17,06,13,2.40
2011,11,17,06,14,2.50
2011,11,17,06,15,2.60
2011,11,17,06,16,2.70
2011,11,17,06,17,2.70
2011,11,17,06,18,2.80
2011,11,17,06,19,2.80
2011,11,17,06,20,2.80
2011,11,17,06,21,2.80
2011,11,17,06,22,2.80
2011,11,17,06,23,2.80
2011,11,17,06,24,2.70
2011,11,17,06,25,2.70
2011,11,17,06,26,2.70
2011,11,17,06,27,2.60
2011,11,17,06,28,2.60
2011,11,17,06,29,2.60
2011,11,17,06,30,2.50
2011,11,17,06,31,2.50
2011,11,17,06,32,2.50
2011,11,17,06,33,2.50
2011,11,17,06,34,2.50
2011,11,17,06,35,2.50
2011,11,17,06,36,2.50
2011,11,17,06,37,2.50
2011,11,17,06,38,2.50
2011,11,17,06,39,2.60
2011,11,17,06,40,2.60
2011,11,17,06,41,2.70
2011,11,17,06,42,2.70
2011,11,17,06,43,2.70
2011,11,17,06,44,2.70
2011,11,17,06,45,2.70
2011,11,17,06,46,2.70
2011,11,17,06,47,2.70
2011,11,17,06,48,2.70
2011,11,17,06,49,2.70
2011,11,17,06,50,2.70
2011,11,17,06,51,2.60
2011,11,17,06,52,2.60
2011,11,17,06,53,2.50
2011,11,17,06,54,2.40
2011,11,17,06,55,2.30
2011,11,17,06,56,2.30
2011,11,17,06,57,2.30
2011,11,17,06,58,2.20
2011,11,17,06,59,2.20
2011,11,17,07,00,2.10
2011,11,17,07,01,2.00
2011,11,17,07,02,2.00
2011,11,17,07,03,1.90
2011,11,17,07,04,1.90
2011,11,17,07,05,1.90
2011,11,17,07,06,1.90
2011,11,17,07,07,1.90
2011,11,17,07,08,1.90
2011,11,17,07,09,1.90
2011,11,17,07,10,1.80
2011,11,17,07,11,1.80
2011,11,17,07,12,1.80
2011,11,17,07,13,1.80
2011,11,17,07,14,1.80
2011,11,17,07,15,1.80
2011,11,17,07,16,1.80
2011,11,17,07,17,1.80
2011,11,17,07,18,2.00
2011,11,17,07,19,2.10
2011,11,17,07,20,2.10
2011,11,17,07,21,2.20
2011,11,17,07,22,2.20
2011,11,17,07,23,2.20
2011,11,17,07,24,2.30
2011,11,17,07,25,2.30
2011,11,17,07,26,2.30
2011,11,17,07,27,2.30
2011,11,17,07,28,2.30
2011,11,17,07,29,2.30
2011,11,17,07,30,2.30
2011,11,17,07,31,2.30
2011,11,17,07,32,2.30
2011,11,17,07,33,2.30
2011,11,17,07,34,2.20
2011,11,17,07,35,2.20
2011,11,17,07,36,2.10
2011,11,17,07,37,2.10
2011,11,17,07,38,2.10
2011,11,17,07,39,2.10
2011,11,17,07,40,2.00
2011,11,17,07,41,2.10
2011,11,17,07,42,2.10
2011,11,17,07,43,2.10
2011,11,17,07,44,2.10
2011,11,17,07,45,2.10
2011,11,17,07,46,2.10
2011,11,17,07,47,2.10
2011,11,17,07,48,2.00
2011,11,17,07,49,2.00
2011,11,17,07,50,1.90
2011,11,17,07,51,1.90
2011,11,17,07,52,1.80
2011,11,17,07,53,1.70
2011,11,17,07,54,1.70
2011,11,17,07,55,1.80
2011,11,17,07,56,1.80
2011,11,17,07,57,1.90
2011,11,17,07,58,1.90
2011,11,17,07,59,2.00
2011,11,17,08,00,2.10
2011,11,17,08,01,2.10
2011,11,17,08,02,2.20
2011,11,17,08,03,2.30
2011,11,17,08,04,2.40
2011,11,17,08,05,2.50
2011,11,17,08,06,2.50
2011,11,17,08,07,2.60
2011,11,17,08,08,2.60
2011,11,17,08,09,2.70
2011,11,17,08,10,2.70
2011,11,17,08,11,2.80
2011,11,17,08,12,2.80
2011,11,17,08,13,2.80
2011,11,17,08,14,2.90
2011,11,17,08,15,2.90
2011,11,17,08,16,2.90
2011,11,17,08,17,2.90
2011,11,17,08,18,3.00
2011,11,17,08,19,3.00
2011,11,17,08,20,3.00
2011,11,17,08,21,3.00
2011,11,17,08,22,3.00
2011,11,17,08,23,3.00
2011,11,17,08,24,3.00
2011,11,17,08,25,3.00
2011,11,17,08,26,2.90
2011,11,17,08,27,2.90
2011,11,17,08,28,2.90
2011,11,17,08,29,2.90
2011,11,17,08,30,2.90
2011,11,17,08,31,2.90
2011,11,17,08,32,2.90
2011,11,17,08,33,2.90
2011,11,17,08,34,3.00
2011,11,17,08,35,3.00
2011,11,17,08,36,3.10
2011,11,17,08,37,3.10
2011,11,17,08,38,3.10
2011,11,17,08,39,3.00
2011,11,17,08,40,2.90
2011,11,17,08,41,2.90
2011,11,17,08,42,2.90
2011,11,17,08,43,2.90
2011,11,17,08,44,2.90
2011,11,17,08,45,2.90
2011,11,17,08,46,2.90
2011,11,17,08,47,2.90
2011,11,17,08,48,2.80
2011,11,17,08,49,2.80
2011,11,17,08,50,2.80
2011,11,17,08,51,2.80
2011,11,17,08,52,2.70
2011,11,17,08,53,2.70
2011,11,17,08,54,2.70
2011,11,17,08,55,2.60
2011,11,17,08,56,2.60
2011,11,17,08,57,2.60
2011,11,17,08,58,2.60
2011,11,17,08,59,2.60
2011,11,17,09,00,2.60
2011,11,17,09,01,2.60
2011,11,17,09,02,2.60
2011,11,17,09,03,2.60
2011,11,17,09,04,2.50
2011,11,17,09,05,2.40
2011,11,17,09,06,2.40
2011,11,17,09,07,2.30
2011,11,17,09,08,2.20
2011,11,17,09,09,2.20
2011,11,17,09,10,2.20
2011,11,17,09,11,2.10
2011,11,17,09,12,2.20
2011,11,17,09,13,2.20
2011,11,17,09,14,2.20
2011,11,17,09,15,2.20
2011,11,17,09,16,2.30
2011,11,17,09,17,2.30
2011,11,17,09,18,2.40
2011,11,17,09,19,2.40
2011,11,17,09,20,2.50
2011,11,17,09,21,2.60
2011,11,17,09,22,2.70
2011,11,17,09,23,2.80
2011,11,17,09,24,2.90
2011,11,17,09,25,3.00
2011,11,17,09,26,3.10
2011,11,17,09,27,3.20
2011,11,17,09,28,3.30
2011,11,17,09,29,3.50
2011,11,17,09,30,3.50
2011,11,17,09,31,3.60
2011,11,17,09,32,3.70
2011,11,17,09,33,3.80
2011,11,17,09,34,3.80
2011,11,17,09,35,3.80
2011,11,17,09,36,3.80
2011,11,17,09,37,3.80
2011,11,17,09,38,3.80
2011,11,17,09,39,3.80
2011,11,17,09,40,3.80
2011,11,17,09,41,3.80
2011,11,17,09,42,3.80
2011,11,17,09,43,3.80
2011,11,17,09,44,3.90
2011,11,17,09,45,3.90
2011,11,17,09,46,3.90
2011,11,17,09,47,3.90
2011,11,17,09,48,4.00
2011,11,17,09,49,4.10
2011,11,17,09,50,4.10
2011,11,17,09,51,4.20
2011,11,17,09,52,4.30
2011,11,17,09,53,4.30
2011,11,17,09,54,4.40
2011,11,17,09,55,4.40
2011,11,17,09,56,4.50
2011,11,17,09,57,4.50
2011,11,17,09,58,4.50
2011,11,17,09,59,4.50
2011,11,17,10,00,4.50
2011,11,17,10,01,4.40
2011,11,17,10,02,4.40
2011,11,17,10,03,4.40
2011,11,17,10,04,4.40
2011,11,17,10,05,4.40
2011,11,17,10,06,4.40
2011,11,17,10,07,4.40
2011,11,17,10,08,4.40
2011,11,17,10,09,4.50
2011,11,17,10,10,4.50
2011,11,17,10,11,4.50
2011,11,17,10,12,4.50
2011,11,17,10,13,4.50
2011,11,17,10,14,4.50
2011,11,17,10,15,4.60
2011,11,17,10,16,4.60
2011,11,17,10,17,4.70
2011,11,17,10,18,4.80
2011,11,17,10,19,4.80
2011,11,17,10,20,4.80
2011,11,17,10,21,4.70
2011,11,17,10,22,4.80
2011,11,17,10,23,4.80
2011,11,17,10,24,4.70
2011,11,17,10,25,4.70
2011,11,17,10,26,4.80
2011,11,17,10,27,4.80
2011,11,17,10,28,4.90
2011,11,17,10,29,4.90
2011,11,17,10,30,4.90
2011,11,17,10,31,4.90
2011,11,17,10,32,4.90
2011,11,17,10,33,5.00
2011,11,17,10,34,5.00
2011,11,17,10,35,5.00
2011,11,17,10,36,5.00
2011,11,17,10,37,5.00
2011,11,17,10,38,5.10
2011,11,17,10,39,5.10
2011,11,17,10,40,5.10
2011,11,17,10,41,5.10
2011,11,17,10,42,5.10
2011,11,17,10,43,5.10
2011,11,17,10,44,5.10
2011,11,17,10,45,5.10
2011,11,17,10,46,5.10
2011,11,17,10,47,5.10
2011,11,17,10,48,5.10
2011,11,17,10,49,5.10
2011,11,17,10,50,5.10
2011,11,17,10,51,5.10
2011,11,17,10,52,5.20
2011,11,17,10,53,5.20
2011,11,17,10,54,5.20
2011,11,17,10,55,5.30
2011,11,17,10,56,5.30
2011,11,17,10,57,5.30
2011,11,17,10,58,5.20
2011,11,17,10,59,5.20
2011,11,17,11,00,5.10
2011,11,17,11,01,5.10
2011,11,17,11,02,5.10
2011,11,17,11,03,5.00
2011,11,17,11,04,4.90
2011,11,17,11,05,4.90
2011,11,17,11,06,4.90
2011,11,17,11,07,4.90
2011,11,17,11,08,4.90
2011,11,17,11,09,4.90
2011,11,17,11,10,4.90
2011,11,17,11,11,4.90
2011,11,17,11,12,4.90
2011,11,17,11,13,4.90
2011,11,17,11,14,4.90
2011,11,17,11,15,4.90
2011,11,17,11,16,4.90
2011,11,17,11,17,4.90
2011,11,17,11,18,5.00
2011,11,17,11,19,5.00
2011,11,17,11,20,5.10
2011,11,17,11,21,5.10
2011,11,17,11,22,5.10
2011,11,17,11,23,5.10
2011,11,17,11,24,5.10
2011,11,17,11,25,5.10
2011,11,17,11,26,5.10
2011,11,17,11,27,5.10
2011,11,17,11,28,5.10
2011,11,17,11,29,5.20
2011,11,17,11,30,5.20
2011,11,17,11,31,5.20
2011,11,17,11,32,5.20
2011,11,17,11,33,5.20
2011,11,17,11,34,5.20
2011,11,17,11,35,5.20
2011,11,17,11,36,5.20
2011,11,17,11,37,5.20
2011,11,17,11,38,5.20
2011,11,17,11,39,5.20
2011,11,17,11,40,5.20
2011,11,17,11,41,5.20
2011,11,17,11,42,5.20
2011,11,17,11,43,5.20
2011,11,17,11,44,5.20
2011,11,17,11,45,5.20
2011,11,17,11,46,5.20
2011,11,17,11,47,5.10
2011,11,17,11,48,5.10
2011,11,17,11,49,5.10
2011,11,17,11,50,5.10
2011,11,17,11,51,5.10
2011,11,17,11,52,5.10
2011,11,17,11,53,5.00
2011,11,17,11,54,5.00
2011,11,17,11,55,5.10
2011,11,17,11,56,5.10
2011,11,17,11,57,5.10
2011,11,17,11,58,5.10
2011,11,17,11,59,5.10
2011,11,17,12,00,5.10
2011,11,17,12,01,5.20
2011,11,17,12,02,5.20
2011,11,17,12,03,5.30
2011,11,17,12,04,5.30
2011,11,17,12,05,5.30
2011,11,17,12,06,5.20
2011,11,17,12,07,5.20
2011,11,17,12,08,5.10
2011,11,17,12,09,5.10
2011,11,17,12,10,5.10
2011,11,17,12,11,5.00
2011,11,17,12,12,5.00
2011,11,17,12,13,5.00
2011,11,17,12,14,4.90
2011,11,17,12,15,4.90
2011,11,17,12,16,4.90
2011,11,17,12,17,4.90
2011,11,17,12,18,4.90
2011,11,17,12,19,4.90
2011,11,17,12,20,4.80
2011,11,17,12,21,4.80
2011,11,17,12,22,4.80
2011,11,17,12,23,4.80
2011,11,17,12,24,4.80
2011,11,17,12,25,4.80
2011,11,17,12,26,4.80
2011,11,17,12,27,4.80
2011,11,17,12,28,4.80
2011,11,17,12,29,4.80
2011,11,17,12,30,4.80
2011,11,17,12,31,4.80
2011,11,17,12,32,4.80
2011,11,17,12,33,4.80
2011,11,17,12,34,4.70
2011,11,17,12,35,4.70
2011,11,17,12,36,4.70
2011,11,17,12,37,4.70
2011,11,17,12,38,4.70
2011,11,17,12,39,4.70
2011,11,17,12,40,4.70
2011,11,17,12,41,4.70
2011,11,17,12,42,4.70
2011,11,17,12,43,4.70
2011,11,17,12,44,4.70
2011,11,17,12,45,4.70
2011,11,17,12,46,4.70
2011,11,17,12,47,4.70
2011,11,17,12,48,4.70
2011,11,17,12,49,4.70
2011,11,17,12,50,4.70
2011,11,17,12,51,4.70
2011,11,17,12,52,4.70
2011,11,17,12,53,4.70
2011,11,17,12,54,4.70
2011,11,17,12,55,4.60
2011,11,17,12,56,4.60
2011,11,17,12,57,4.50
2011,11,17,12,58,4.50
2011,11,17,12,59,4.50
2011,11,17,13,00,4.40
2011,11,17,13,01,4.40
2011,11,17,13,02,4.40
2011,11,17,13,03,4.40
2011,11,17,13,04,4.40
2011,11,17,13,05,4.40
2011,11,17,13,06,4.40
2011,11,17,13,07,4.40
2011,11,17,13,08,4.40
2011,11,17,13,09,4.40
2011,11,17,13,10,4.50
2011,11,17,13,11,4.50
2011,11,17,13,12,4.50
2011,11,17,13,13,4.50
2011,11,17,13,14,4.50
2011,11,17,13,15,4.60
2011,11,17,13,16,4.60
2011,11,17,13,17,4.60
2011,11,17,13,18,4.60
2011,11,17,13,19,4.50
2011,11,17,13,20,4.50
2011,11,17,13,21,4.50
2011,11,17,13,22,4.50
2011,11,17,13,23,4.40
2011,11,17,13,24,4.40
2011,11,17,13,25,4.40
2011,11,17,13,26,4.40
2011,11,17,13,27,4.40
2011,11,17,13,28,4.40
2011,11,17,13,29,4.30
2011,11,17,13,30,4.30
2011,11,17,13,31,4.30
2011,11,17,13,32,4.30
2011,11,17,13,33,4.30
2011,11,17,13,34,4.30
2011,11,17,13,35,4.30
2011,11,17,13,36,4.30
2011,11,17,13,37,4.30
2011,11,17,13,38,4.30
2011,11,17,13,39,4.30
2011,11,17,13,40,4.30
2011,11,17,13,41,4.30
2011,11,17,13,42,4.30
2011,11,17,13,43,4.30
2011,11,17,13,44,4.20
2011,11,17,13,45,4.20
2011,11,17,13,46,4.20
2011,11,17,13,47,4.20
2011,11,17,13,48,4.20
2011,11,17,13,49,4.20
2011,11,17,13,50,4.20
2011,11,17,13,51,4.20
2011,11,17,13,52,4.20
2011,11,17,13,53,4.20
2011,11,17,13,54,4.10
2011,11,17,13,55,4.10
2011,11,17,13,56,4.10
2011,11,17,13,57,4.10
2011,11,17,13,58,4.10
2011,11,17,13,59,4.00
2011,11,17,14,00,4.00
2011,11,17,14,01,4.00
2011,11,17,14,02,4.00
2011,11,17,14,03,4.00
2011,11,17,14,04,4.00
2011,11,17,14,05,4.10
2011,11,17,14,06,4.10
2011,11,17,14,07,4.10
2011,11,17,14,08,4.10
2011,11,17,14,09,4.10
2011,11,17,14,10,4.10
2011,11,17,14,11,4.10
2011,11,17,14,12,4.10
2011,11,17,14,13,4.10
2011,11,17,14,14,4.10
2011,11,17,14,15,4.20
2011,11,17,14,16,4.20
2011,11,17,14,17,4.20
2011,11,17,14,18,4.20
2011,11,17,14,19,4.20
2011,11,17,14,20,4.20
2011,11,17,14,21,4.20
2011,11,17,14,22,4.20
2011,11,17,14,23,4.20
2011,11,17,14,24,4.20
2011,11,17,14,25,4.30
2011,11,17,14,26,4.30
2011,11,17,14,27,4.30
2011,11,17,14,28,4.30
2011,11,17,14,29,4.30
2011,11,17,14,30,4.30
2011,11,17,14,31,4.30
2011,11,17,14,32,4.30
2011,11,17,14,33,4.30
2011,11,17,14,34,4.30
2011,11,17,14,35,4.30
2011,11,17,14,36,4.30
2011,11,17,14,37,4.30
2011,11,17,14,38,4.30
2011,11,17,14,39,4.30
2011,11,17,14,40,4.30
2011,11,17,14,41,4.30
2011,11,17,14,42,4.20
2011,11,17,14,43,4.20
2011,11,17,14,44,4.20
2011,11,17,14,45,4.20
2011,11,17,14,46,4.20
2011,11,17,14,47,4.20
2011,11,17,14,48,4.10
2011,11,17,14,49,4.10
2011,11,17,14,50,4.10
2011,11,17,14,51,4.10
2011,11,17,14,52,4.10
2011,11,17,14,53,4.10
2011,11,17,14,54,4.10
2011,11,17,14,55,4.10
2011,11,17,14,56,4.10
2011,11,17,14,57,4.10
2011,11,17,14,58,4.10
2011,11,17,14,59,4.10
2011,11,17,15,00,4.10
2011,11,17,15,01,4.10
2011,11,17,15,02,4.10
2011,11,17,15,03,4.10
2011,11,17,15,04,4.10
2011,11,17,15,05,4.10
2011,11,17,15,06,4.10
2011,11,17,15,07,4.10
2011,11,17,15,08,4.10
2011,11,17,15,09,4.10
2011,11,17,15,10,4.10
2011,11,17,15,11,4.20
2011,11,17,15,12,4.20
2011,11,17,15,13,4.20
2011,11,17,15,14,4.20
2011,11,17,15,15,4.20
2011,11,17,15,16,4.20
2011,11,17,15,17,4.20
2011,11,17,15,18,4.20
2011,11,17,15,19,4.20
2011,11,17,15,20,4.20
2011,11,17,15,21,4.20
2011,11,17,15,22,4.20
2011,11,17,15,23,4.20
2011,11,17,15,24,4.20
2011,11,17,15,25,4.20
2011,11,17,15,26,4.20
2011,11,17,15,27,4.20
2011,11,17,15,28,4.20
2011,11,17,15,29,4.20
2011,11,17,15,30,4.20
2011,11,17,15,31,4.10
2011,11,17,15,32,4.10
2011,11,17,15,33,4.20
2011,11,17,15,34,4.20
2011,11,17,15,35,4.20
2011,11,17,15,36,4.20
2011,11,17,15,37,4.10
2011,11,17,15,38,4.10
2011,11,17,15,39,4.20
2011,11,17,15,40,4.10
2011,11,17,15,41,4.10
2011,11,17,15,42,4.10
2011,11,17,15,43,4.10
2011,11,17,15,44,4.10
2011,11,17,15,45,4.10
2011,11,17,15,46,4.10
2011,11,17,15,47,4.10
2011,11,17,15,48,4.10
2011,11,17,15,49,4.10
2011,11,17,15,50,4.10
2011,11,17,15,51,4.10
2011,11,17,15,52,4.10
2011,11,17,15,53,4.10
2011,11,17,15,54,4.10
2011,11,17,15,55,4.10
2011,11,17,15,56,4.00
2011,11,17,15,57,4.00
2011,11,17,15,58,4.00
2011,11,17,15,59,4.00
2011,11,17,16,00,4.00
2011,11,17,16,01,3.90
2011,11,17,16,02,3.90
2011,11,17,16,03,3.90
2011,11,17,16,04,3.90
2011,11,17,16,05,3.90
2011,11,17,16,06,3.90
2011,11,17,16,07,3.80
2011,11,17,16,08,3.80
2011,11,17,16,09,3.80
2011,11,17,16,10,3.80
2011,11,17,16,11,3.80
2011,11,17,16,12,3.80
2011,11,17,16,13,3.80
2011,11,17,16,14,3.70
2011,11,17,16,15,3.70
2011,11,17,16,16,3.70
2011,11,17,16,17,3.70
2011,11,17,16,18,3.70
2011,11,17,16,19,3.70
2011,11,17,16,20,3.60
2011,11,17,16,21,3.60
2011,11,17,16,22,3.60
2011,11,17,16,23,3.60
2011,11,17,16,24,3.60
2011,11,17,16,25,3.60
2011,11,17,16,26,3.60
2011,11,17,16,27,3.50
2011,11,17,16,28,3.50
2011,11,17,16,29,3.60
2011,11,17,16,30,3.60
2011,11,17,16,31,3.50
2011,11,17,16,32,3.50
2011,11,17,16,33,3.50
2011,11,17,16,34,3.50
2011,11,17,16,35,3.50
2011,11,17,16,36,3.50
2011,11,17,16,37,3.40
2011,11,17,16,38,3.40
2011,11,17,16,39,3.40
2011,11,17,16,40,3.40
2011,11,17,16,41,3.40
2011,11,17,16,42,3.40
2011,11,17,16,43,3.40
2011,11,17,16,44,3.40
2011,11,17,16,45,3.40
2011,11,17,16,46,3.40
2011,11,17,16,47,3.40
2011,11,17,16,48,3.30
2011,11,17,16,49,3.30
2011,11,17,16,50,3.30
2011,11,17,16,51,3.30
2011,11,17,16,52,3.30
2011,11,17,16,53,3.30
2011,11,17,16,54,3.30
2011,11,17,16,55,3.30
2011,11,17,16,56,3.20
2011,11,17,16,57,3.20
2011,11,17,16,58,3.20
2011,11,17,16,59,3.20
2011,11,17,17,00,3.20
2011,11,17,17,01,3.20
2011,11,17,17,02,3.20
2011,11,17,17,03,3.20
2011,11,17,17,04,3.20
2011,11,17,17,05,3.20
2011,11,17,17,06,3.10
2011,11,17,17,07,3.10
2011,11,17,17,08,3.10
2011,11,17,17,09,3.10
2011,11,17,17,10,3.10
2011,11,17,17,11,3.10
2011,11,17,17,12,3.10
2011,11,17,17,13,3.10
2011,11,17,17,14,3.10
2011,11,17,17,15,3.00
2011,11,17,17,16,3.00
2011,11,17,17,17,3.00
2011,11,17,17,18,3.00
2011,11,17,17,19,3.00
2011,11,17,17,20,3.00
2011,11,17,17,21,2.90
2011,11,17,17,22,2.90
2011,11,17,17,23,2.90
2011,11,17,17,24,2.90
2011,11,17,17,25,2.90
2011,11,17,17,26,2.90
2011,11,17,17,27,2.90
2011,11,17,17,28,2.90
2011,11,17,17,29,2.90
2011,11,17,17,30,2.80
2011,11,17,17,31,2.80
2011,11,17,17,32,2.80
2011,11,17,17,33,2.80
2011,11,17,17,34,2.80
2011,11,17,17,35,2.80
2011,11,17,17,36,2.80
2011,11,17,17,37,2.80
2011,11,17,17,38,2.70
2011,11,17,17,39,2.70
2011,11,17,17,40,2.70
2011,11,17,17,41,2.70
2011,11,17,17,42,2.70
2011,11,17,17,43,2.70
2011,11,17,17,44,2.70
2011,11,17,17,45,2.70
2011,11,17,17,46,2.70
2011,11,17,17,47,2.70
2011,11,17,17,48,2.70
2011,11,17,17,49,2.70
2011,11,17,17,50,2.70
2011,11,17,17,51,2.70
2011,11,17,17,52,2.60
2011,11,17,17,53,2.60
2011,11,17,17,54,2.60
2011,11,17,17,55,2.60
2011,11,17,17,56,2.60
2011,11,17,17,57,2.60
2011,11,17,17,58,2.60
2011,11,17,17,59,2.60
2011,11,17,18,00,2.60
2011,11,17,18,01,2.60
2011,11,17,18,02,2.60
2011,11,17,18,03,2.60
2011,11,17,18,04,2.60
2011,11,17,18,05,2.60
2011,11,17,18,06,2.60